Content
SEND FEEDBACK

Daily
Averages
Monthly
Summary
United States of America

INARAJAN, GUAM


Home > North America > United States > Guam
Elevation: 85 meters     Latitude: 13 18N     Longitude: 144 44E

WEATHER
 
SELECT A DAY
Number of Records: 350,245;   Date Range: 1/1/95 - 9/30/14
 
SHARE

PRINT THIS DATA

[ ← Previous Day ]
WEATHER ALMANAC - 11 JANUARY, 2013
[ Next Day → ]
[ °F ]   °C
Weather ElementAverageHighLow
Temperature24.8 °C28.9 °C (10:55 am)21.8 °C (12:55 am)
Dewpoint21.2 °C23 °C (4:08 am)18 °C (1:16 am)
Humidity80.7 %94 % (8:17 pm)68 % (10:55 am)
Barometer1010.5 hPa1012.2 hPa (10:50 pm)1008.8 hPa (3:22 am)
Wind Speed27 km/h35.2 km/h (9:55 am)
Wind Gust44.4 km/h (9:55 am)
Weather ElementAverage
Visibility15.9 km
Wind DirectionENE (73.3 °)

Weather ElementTotal
Precipitation---
Cooling Degree Days7 (Base 18.3)
Growing Degree Days15.3 (Base 10)
Averaged from 55 records on 11 January, 2013
WEATHER CONDITIONS BREAKOUT
WIND DIRECTION BREAKOUT
WEATHER BY HOUR - 11 JANUARY, 2013
[ °F ]   °C
Local TimeTemperatureDewpointHumidityBarometerVisibilityWind DirectionWind SpeedGust SpeedPrecipitationEventsConditions
12:55 AM21.8 °C18.3 °C80 %1010.2 hPa16.1 kmEast (80°)24.1 km/h37 km/hMostly Cloudy
1:16 AM22 °C18 °C78 %1009.8 hPa16.1 kmEast (90°)25.9 km/hScattered Clouds
1:33 AM22 °C19 °C83 %1009.8 hPa16.1 kmEast (80°)24.1 km/hMostly Cloudy
1:34 AM22 °C19 °C83 %1009.8 hPa16.1 kmEast (80°)24.1 km/hScattered Clouds
1:35 AM22 °C19 °C83 %1009.8 hPa16.1 kmEast (80°)25.9 km/hMostly Cloudy
1:38 AM22 °C18 °C78 %1009.8 hPa16.1 kmEast (80°)25.9 km/hScattered Clouds
1:40 AM22 °C18 °C78 %1009.8 hPa16.1 kmEast (80°)25.9 km/hMostly Cloudy
1:54 AM22 °C19 °C83 %1009.8 hPa16.1 kmEast (90°)25.9 km/hScattered Clouds
1:55 AM22.2 °C18.6 °C80 %1009.8 hPa16.1 kmEast (80°)25.9 km/hScattered Clouds
2:37 AM22 °C19 °C83 %1009.1 hPa16.1 kmEast (90°)24.1 km/hMostly Cloudy
2:55 AM23.4 °C19.8 °C80 %1009.1 hPa16.1 kmEast (90°)27.8 km/hMostly Cloudy
3:05 AM23 °C19 °C78 %1009.1 hPa16.1 kmEast (90°)27.8 km/hScattered Clouds
3:14 AM23 °C19 °C78 %1009.1 hPa16.1 kmEast (80°)24.1 km/hMostly Cloudy
3:19 AM23 °C19 °C78 %1009.1 hPa16.1 kmEast (80°)27.8 km/hMostly Cloudy
3:22 AM23 °C19 °C78 %1008.8 hPa16.1 kmEast (80°)24.1 km/hMostly Cloudy
3:26 AM23 °C19 °C78 %1008.8 hPa16.1 kmEast (80°)25.9 km/hScattered Clouds
3:55 AM22.8 °C19.3 °C81 %1008.8 hPa16.1 kmEast (80°)29.6 km/hClear
4:08 AM26 °C23 °C83 %1011.5 hPa16.1 kmEast (80°)24.1 km/h37 km/hMostly Cloudy
4:55 AM26 °C22 °C78 %1009.1 hPa16.1 kmEast (80°)24.1 km/h38.9 km/hClear
5:55 AM25 °C22 °C83 %1009.8 hPa16.1 kmENE (70°)29.6 km/hPartly Cloudy
6:55 AM26 °C23 °C83 %1010.5 hPa16.1 kmENE (70°)27.8 km/hPartly Cloudy
7:55 AM23.1 °C18.6 °C76 %1011.2 hPa16.1 kmENE (70°)29.6 km/hClear
8:55 AM24.7 °C18.8 °C70 %1011.9 hPa16.1 kmEast (80°)31.5 km/hPartly Cloudy
9:55 AM27 °C21 °C70 %1011.9 hPa16.1 kmEast (80°)35.2 km/h44.4 km/hClear
10:55 AM28.9 °C22.5 °C68 %1011.5 hPa16.1 kmENE (70°)31.5 km/hPartly Cloudy
11:55 AM28.2 °C21.9 °C68 %1010.8 hPa16.1 kmENE (70°)31.5 km/hClear
12:55 PM28.9 °C23 °C70 %1009.8 hPa16.1 kmENE (70°)25.9 km/h37 km/hPartly Cloudy
1:55 PM28.6 °C22.1 °C68 %1009.5 hPa16.1 kmENE (70°)31.5 km/hClear
2:55 PM28.9 °C22.6 °C69 %1009.1 hPa16.1 kmENE (70°)29.6 km/hPartly Cloudy
3:46 PM28 °C23 °C74 %1009.5 hPa16.1 kmENE (60°)27.8 km/hMostly Cloudy
3:55 PM27.5 °C22.4 °C74 %1009.5 hPa16.1 kmENE (60°)29.6 km/hMostly Cloudy
4:03 PM28 °C22 °C70 %1009.5 hPa16.1 kmENE (70°)25.9 km/hMostly Cloudy
4:55 PM27.2 °C22.7 °C76 %1010.2 hPa16.1 kmNE (50°)27.8 km/hPartly Cloudy
5:55 PM26 °C22.4 °C80 %1010.2 hPa16.1 kmENE (70°)24.1 km/hMostly Cloudy
6:55 PM25.7 °C22.7 °C83 %1010.8 hPa16.1 kmENE (60°)25.9 km/hPartly Cloudy
7:10 PM25 °C22 °C83 %1010.8 hPa14.5 kmENE (60°)25.9 km/h42.6 km/hRainLight Rain
7:19 PM25 °C23 °C89 %1011.2 hPa16.1 kmENE (60°)27.8 km/hScattered Clouds
7:34 PM25 °C23 °C89 %1011.2 hPa16.1 kmENE (60°)25.9 km/hMostly Cloudy
7:39 PM25 °C22 °C83 %1011.2 hPa16.1 kmENE (60°)27.8 km/hScattered Clouds
7:54 PM25 °C22 °C83 %1011.2 hPa16.1 kmENE (60°)29.6 km/hMostly Cloudy
7:55 PM25.4 °C22.5 °C84 %1011.2 hPa16.1 kmENE (60°)29.6 km/h0 mmMostly Cloudy
7:56 PM25 °C23 °C89 %1011.2 hPa16.1 kmENE (60°)29.6 km/hScattered Clouds
8:02 PM25 °C22 °C83 %1011.2 hPa16.1 kmEast (80°)33.3 km/hMostly Cloudy
8:04 PM25 °C22 °C83 %1011.2 hPa14.5 kmEast (80°)29.6 km/hLight Drizzle
8:16 PM24 °C22 °C89 %1011.2 hPa16.1 kmENE (60°)22.2 km/hMostly Cloudy
8:17 PM24 °C23 °C94 %1011.2 hPa16.1 kmENE (60°)22.2 km/hScattered Clouds
8:55 PM25 °C21.9 °C83 %1011.2 hPa16.1 kmENE (60°)24.1 km/h37 km/h0 mmPartly Cloudy
9:55 PM25.2 °C22.2 °C83 %1011.5 hPa16.1 kmENE (70°)24.1 km/hPartly Cloudy
10:50 PM25 °C23 °C89 %1012.2 hPa12.9 kmENE (60°)33.3 km/h40.7 km/hRainRain
10:55 PM25 °C23 °C89 %1011.9 hPa9.7 kmENE (70°)22.2 km/h40.7 km/h0 mmRainLight Rain
11:04 PM25 °C23 °C89 %1011.9 hPa16.1 kmEast (80°)25.9 km/hScattered Clouds
11:12 PM25 °C23 °C89 %1012.2 hPa16.1 kmEast (90°)25.9 km/hRainLight Rain
11:21 PM25 °C23 °C89 %1012.2 hPa16.1 kmEast (90°)24.1 km/hMostly Cloudy
11:24 PM25 °C23 °C89 %1012.2 hPa16.1 kmEast (80°)25.9 km/hScattered Clouds
11:55 PM25 °C23 °C89 %1012.2 hPa16.1 kmENE (70°)25.9 km/h0 mmScattered Clouds
Hourly data recorded from PGUA, located 0 kilometers away from Inarajan, Guam







STORIES FROM OUR PARTNERS